Location: Newark
(41.8083°N, 72.2500°W)
Time: 12:06:42
(UTC+00:00)

Explorer 11/Cluster Stage 4 - Pass Details

Date: 09 December 2021
Orbit: 467 x 1255 km, 28.8° (Epoch: 24 January)

Event Time Altitude Azimuth Distance (km) Brightness Sun altitude
Rises 03:56:31 0° 207° (SSW) 2,787 - -68.8°
Reaches altitude 10° 04:00:56 10° 165° (SSE) 2,091 - -69.2°
Maximum altitude 04:01:42 10° 156° (SSE) 2,106 - -69.3°
Drops below altitude 10° 04:02:29 10° 147° (SSE) 2,169 - -69.4°
Sets 04:07:42 0° 108° (ESE) 3,365 - -69.8°
